TimePDT,TemperatureF,Dew PointF,Humidity,Sea Level PressureIn,VisibilityMPH,Wind Direction,Wind SpeedMPH,Gust SpeedMPH,PrecipitationIn,Events,Conditions,WindDirDegrees,DateUTC
12:53 AM,66.0,54.0,65,29.92,10.0,Calm,Calm,-,N/A,,Overcast,0,2013-05-17 07:53:00
1:23 AM,64.4,53.6,68,29.92,10.0,South,3.5,-,N/A,,Overcast,180,2013-05-17 08:23:00
1:53 AM,64.9,55.0,70,29.91,10.0,SSW,3.5,-,N/A,,Overcast,200,2013-05-17 08:53:00
2:00 AM,64.4,55.4,73,29.91,10.0,Calm,Calm,-,N/A,,Overcast,0,2013-05-17 09:00:00
2:53 AM,64.9,55.0,70,29.91,10.0,Calm,Calm,-,N/A,,Overcast,0,2013-05-17 09:53:00
3:01 AM,64.4,55.4,73,29.91,10.0,Calm,Calm,-,N/A,,Overcast,0,2013-05-17 10:01:00
3:53 AM,64.9,55.0,70,29.90,10.0,Calm,Calm,-,N/A,,Overcast,0,2013-05-17 10:53:00
4:53 AM,64.9,55.9,73,29.91,10.0,South,3.5,-,N/A,,Overcast,180,2013-05-17 11:53:00
5:53 AM,64.9,55.0,70,29.92,10.0,South,3.5,-,N/A,,Overcast,170,2013-05-17 12:53:00
6:22 AM,64.4,55.4,73,29.93,9.0,South,5.8,-,N/A,,Overcast,170,2013-05-17 13:22:00
6:50 AM,64.4,55.4,73,29.94,10.0,SSW,3.5,-,N/A,,Overcast,210,2013-05-17 13:50:00
6:53 AM,64.0,55.9,75,29.94,10.0,SSW,4.6,-,N/A,,Overcast,200,2013-05-17 13:53:00
7:53 AM,66.0,55.0,68,29.94,10.0,South,4.6,-,N/A,,Mostly Cloudy,170,2013-05-17 14:53:00
8:53 AM,69.1,55.0,61,29.95,10.0,Calm,Calm,-,N/A,,Mostly Cloudy,0,2013-05-17 15:53:00
9:00 AM,69.8,55.4,60,29.95,10.0,Variable,6.9,-,N/A,,Mostly Cloudy,0,2013-05-17 16:00:00
9:18 AM,69.8,53.6,56,29.95,10.0,South,5.8,-,N/A,,Mostly Cloudy,180,2013-05-17 16:18:00
9:53 AM,70.0,54.0,57,29.95,10.0,SW,4.6,-,N/A,,Overcast,220,2013-05-17 16:53:00
10:07 AM,71.6,53.6,53,29.95,10.0,South,4.6,-,N/A,,Mostly Cloudy,190,2013-05-17 17:07:00
10:34 AM,71.6,55.4,57,29.96,10.0,Variable,4.6,-,N/A,,Overcast,0,2013-05-17 17:34:00
10:53 AM,71.1,54.0,55,29.96,10.0,SSW,5.8,-,N/A,,Overcast,210,2013-05-17 17:53:00
11:08 AM,71.6,55.4,57,29.96,10.0,South,5.8,-,N/A,,Overcast,180,2013-05-17 18:08:00
11:37 AM,71.6,55.4,57,29.96,10.0,SW,10.4,-,N/A,,Overcast,220,2013-05-17 18:37:00
12:06 PM,71.6,55.4,57,29.96,10.0,SW,8.1,16.1,N/A,,Overcast,220,2013-05-17 19:06:00
12:14 PM,73.4,55.4,53,29.96,10.0,SSW,10.4,-,N/A,,Overcast,200,2013-05-17 19:14:00
12:42 PM,73.4,55.4,53,29.96,10.0,West,5.8,-,N/A,,Overcast,260,2013-05-17 19:42:00
12:53 PM,73.9,55.0,52,29.95,10.0,Variable,6.9,-,N/A,,Mostly Cloudy,0,2013-05-17 19:53:00
1:53 PM,73.9,55.9,53,29.95,10.0,SW,8.1,17.3,N/A,,Mostly Cloudy,230,2013-05-17 20:53:00
2:53 PM,73.9,54.0,50,29.95,10.0,South,12.7,18.4,N/A,,Clear,190,2013-05-17 21:53:00
3:53 PM,75.0,55.0,50,29.95,10.0,South,11.5,16.1,N/A,,Clear,190,2013-05-17 22:53:00
4:53 PM,73.0,55.0,53,29.94,10.0,SSW,9.2,-,N/A,,Mostly Cloudy,200,2013-05-17 23:53:00
5:53 PM,73.0,55.0,53,29.94,10.0,Variable,6.9,-,N/A,,Partly Cloudy,0,2013-05-18 00:53:00
6:53 PM,71.1,55.0,57,29.94,10.0,SSW,8.1,-,N/A,,Clear,210,2013-05-18 01:53:00
7:53 PM,68.0,53.1,59,29.95,10.0,South,6.9,-,N/A,,Partly Cloudy,180,2013-05-18 02:53:00
8:53 PM,66.0,52.0,60,29.97,10.0,SSW,6.9,-,N/A,,Clear,200,2013-05-18 03:53:00
9:53 PM,64.9,54.0,68,29.99,10.0,SSE,4.6,-,N/A,,Clear,160,2013-05-18 04:53:00
10:53 PM,64.9,55.0,70,29.99,10.0,South,4.6,-,N/A,,Clear,190,2013-05-18 05:53:00
11:53 PM,64.0,55.0,73,29.99,10.0,Calm,Calm,-,N/A,,Clear,0,2013-05-18 06:53:00